Time,TemperatureF,DewpointF,PressureIn,WindDirection,WindDirectionDegrees,WindSpeedMPH,WindSpeedGustMPH,Humidity,HourlyPrecipIn,Conditions,Clouds,dailyrainin,SoftwareType,DateUTC
2013-10-20 00:57:00,45.7,35.1,29.08,SW,225,0.0,0.0,66,0.00,,,0.00,WUHU21623XXSP,2013-10-20 05:57:00,
2013-10-20 01:57:00,45.7,35.5,29.07,WSW,248,0.0,0.0,67,0.00,,,0.00,WUHU21623XXSP,2013-10-20 06:57:00,
2013-10-20 02:57:00,45.3,35.5,29.09,West,270,0.0,0.0,68,0.00,,,0.00,WUHU21623XXSP,2013-10-20 07:57:00,
2013-10-20 03:57:00,45.3,35.1,29.08,West,270,0.0,0.0,67,0.00,,,0.00,WUHU21623XXSP,2013-10-20 08:57:00,
2013-10-20 04:57:00,44.4,34.2,29.06,NNE,23,2.0,2.0,67,0.00,,,0.00,WUHU21623XXSP,2013-10-20 09:57:00,
2013-10-20 05:57:00,43.0,33.2,29.05,NNE,23,0.0,0.0,68,0.00,,,0.00,WUHU21623XXSP,2013-10-20 10:57:00,
2013-10-20 06:57:00,43.0,33.6,29.05,ESE,113,0.0,0.0,69,0.00,,,0.00,WUHU21623XXSP,2013-10-20 11:57:00,
2013-10-20 07:41:00,43.7,34.6,29.05,SSE,157,3.4,3.4,70,0.00,,,0.00,WUHU21623XXSP,2013-10-20 12:41:00,
2013-10-20 07:46:00,43.7,34.6,29.05,SE,135,0.0,3.4,70,0.00,,,0.00,WUHU21623XXSP,2013-10-20 12:46:00,
2013-10-20 07:51:00,43.7,34.6,29.05,SE,135,2.7,2.7,70,0.00,,,0.00,WUHU21623XXSP,2013-10-20 12:51:00,
2013-10-20 07:56:00,43.7,34.6,29.05,SSE,157,0.0,2.7,70,0.00,,,0.00,WUHU21623XXSP,2013-10-20 12:56:00,
2013-10-20 08:01:00,43.7,34.6,29.05,SE,135,4.7,4.7,70,0.00,,,0.00,WUHU21623XXSP,2013-10-20 13:01:00,
2013-10-20 08:06:00,43.9,35.1,29.05,SE,135,0.0,4.7,71,0.00,,,0.00,WUHU21623XXSP,2013-10-20 13:06:00,
2013-10-20 08:11:00,43.9,35.1,29.05,SE,135,0.0,3.8,71,0.00,,,0.00,WUHU21623XXSP,2013-10-20 13:11:00,
2013-10-20 08:16:00,44.2,35.4,29.05,SE,135,0.0,6.7,71,0.00,,,0.00,WUHU21623XXSP,2013-10-20 13:16:00,
2013-10-20 08:21:00,44.2,35.4,29.05,SE,135,0.0,6.7,71,0.00,,,0.00,WUHU21623XXSP,2013-10-20 13:21:00,
2013-10-20 08:26:00,44.2,35.4,29.06,South,180,0.0,2.7,71,0.00,,,0.00,WUHU21623XXSP,2013-10-20 13:26:00,
2013-10-20 08:31:00,44.2,35.4,29.06,SE,135,0.0,2.7,71,0.00,,,0.00,WUHU21623XXSP,2013-10-20 13:31:00,
2013-10-20 08:36:00,44.2,35.8,29.06,SSE,157,0.0,1.3,72,0.00,,,0.00,WUHU21623XXSP,2013-10-20 13:36:00,
2013-10-20 08:41:00,44.2,35.8,29.05,SSE,157,0.0,3.1,72,0.00,,,0.00,WUHU21623XXSP,2013-10-20 13:41:00,
2013-10-20 08:46:00,44.2,35.8,29.05,SSE,157,0.0,3.1,72,0.00,,,0.00,WUHU21623XXSP,2013-10-20 13:46:00,
2013-10-20 08:51:00,44.4,35.9,29.05,SSE,157,0.0,0.0,72,0.00,,,0.00,WUHU21623XXSP,2013-10-20 13:51:00,
2013-10-20 08:56:00,44.4,36.3,29.06,SSE,157,0.0,0.0,73,0.00,,,0.00,WUHU21623XXSP,2013-10-20 13:56:00,
2013-10-20 09:01:00,44.4,36.3,29.06,SSE,157,0.0,0.0,73,0.00,,,0.00,WUHU21623XXSP,2013-10-20 14:01:00,
2013-10-20 09:07:00,45.0,36.8,29.06,West,270,0.0,1.8,73,0.00,,,0.00,WUHU21623XXSP,2013-10-20 14:07:00,
2013-10-20 09:12:00,45.1,37.0,29.06,SSE,157,6.7,6.7,73,0.00,,,0.00,WUHU21623XXSP,2013-10-20 14:12:00,
2013-10-20 09:17:00,45.3,37.2,29.06,SSE,157,0.0,6.7,73,0.00,,,0.00,WUHU21623XXSP,2013-10-20 14:17:00,
2013-10-20 09:22:00,45.7,37.5,29.05,SSE,157,0.0,0.0,73,0.00,,,0.00,WUHU21623XXSP,2013-10-20 14:22:00,
2013-10-20 09:27:00,46.0,37.9,29.06,South,180,0.0,0.7,73,0.00,,,0.00,WUHU21623XXSP,2013-10-20 14:27:00,
2013-10-20 09:32:00,46.6,38.4,29.06,SSE,157,0.0,3.6,73,0.00,,,0.00,WUHU21623XXSP,2013-10-20 14:32:00,
2013-10-20 09:37:00,46.8,38.2,29.05,SSE,157,0.0,3.6,72,0.00,,,0.00,WUHU21623XXSP,2013-10-20 14:37:00,
2013-10-20 09:42:00,46.9,38.4,29.06,South,180,0.0,0.0,72,0.00,,,0.00,WUHU21623XXSP,2013-10-20 14:42:00,
2013-10-20 09:47:00,47.3,38.7,29.05,SE,135,0.0,0.9,72,0.00,,,0.00,WUHU21623XXSP,2013-10-20 14:47:00,
2013-10-20 09:52:00,47.5,38.9,29.05,SSE,157,0.0,0.9,72,0.00,,,0.00,WUHU21623XXSP,2013-10-20 14:52:00,
2013-10-20 09:57:00,48.0,39.4,29.05,SSE,157,0.0,0.0,72,0.00,,,0.00,WUHU21623XXSP,2013-10-20 14:57:00,
2013-10-20 10:02:00,48.6,39.5,29.04,SSW,202,0.0,0.0,71,0.00,,,0.00,WUHU21623XXSP,2013-10-20 15:02:00,
2013-10-20 10:07:00,49.3,39.9,29.03,SSE,157,0.0,0.0,71,0.00,,,0.00,WUHU21623XXSP,2013-10-20 15:07:00,
2013-10-20 10:12:00,49.8,40.8,29.03,SE,135,0.0,0.0,71,0.00,,,0.00,WUHU21623XXSP,2013-10-20 15:12:00,
2013-10-20 10:17:00,50.5,40.8,29.04,SW,225,0.0,5.8,69,0.00,,,0.00,WUHU21623XXSP,2013-10-20 15:17:00,
2013-10-20 10:22:00,50.7,40.9,29.03,SSE,157,1.3,5.8,69,0.00,,,0.00,WUHU21623XXSP,2013-10-20 15:22:00,
2013-10-20 10:27:00,51.1,41.3,29.04,SW,225,0.0,5.1,69,0.00,,,0.00,WUHU21623XXSP,2013-10-20 15:27:00,
2013-10-20 10:32:00,51.4,41.3,29.03,SSE,157,0.0,9.8,68,0.00,,,0.00,WUHU21623XXSP,2013-10-20 15:32:00,
2013-10-20 10:37:00,51.6,41.4,29.02,SSE,157,0.0,9.8,68,0.00,,,0.00,WUHU21623XXSP,2013-10-20 15:37:00,
2013-10-20 10:42:00,52.0,41.4,29.02,South,180,3.4,6.0,67,0.00,,,0.00,WUHU21623XXSP,2013-10-20 15:42:00,
2013-10-20 10:47:00,52.7,42.0,29.02,SE,135,0.0,6.0,67,0.00,,,0.00,WUHU21623XXSP,2013-10-20 15:47:00,
2013-10-20 10:52:00,53.2,42.1,29.02,SE,135,1.3,12.8,66,0.00,,,0.00,WUHU21623XXSP,2013-10-20 15:52:00,
2013-10-20 10:57:00,53.8,42.2,29.02,SE,135,5.4,12.8,65,0.00,,,0.00,WUHU21623XXSP,2013-10-20 15:57:00,
2013-10-20 11:02:00,53.8,42.2,29.02,SSE,157,2.5,5.4,65,0.00,,,0.00,WUHU21623XXSP,2013-10-20 16:02:00,
2013-10-20 11:07:00,54.0,41.8,29.02,ESE,112,0.0,2.5,65,0.00,,,0.00,WUHU21623XXSP,2013-10-20 16:07:00,
2013-10-20 11:12:00,54.1,42.2,29.03,SW,225,0.0,3.8,64,0.00,,,0.00,WUHU21623XXSP,2013-10-20 16:12:00,
2013-10-20 11:17:00,54.7,42.7,29.02,SE,135,0.9,3.8,64,0.00,,,0.00,WUHU21623XXSP,2013-10-20 16:17:00,
2013-10-20 11:22:00,55.2,42.8,29.02,SSW,202,0.0,1.6,63,0.00,,,0.00,WUHU21623XXSP,2013-10-20 16:22:00,
2013-10-20 11:27:00,55.2,42.4,29.02,SSW,202,2.0,2.0,62,0.00,,,0.00,WUHU21623XXSP,2013-10-20 16:27:00,
2013-10-20 11:32:00,55.6,42.7,29.02,SW,225,0.0,2.0,62,0.00,,,0.00,WUHU21623XXSP,2013-10-20 16:32:00,
2013-10-20 11:36:00,55.6,42.7,29.02,SE,135,0.0,0.0,62,0.00,,,0.00,WUHU21623XXSP,2013-10-20 16:36:00,
2013-10-20 11:41:00,55.9,43.1,29.02,WSW,247,0.0,0.0,62,0.00,,,0.00,WUHU21623XXSP,2013-10-20 16:41:00,
2013-10-20 11:46:00,55.9,43.1,29.02,SSW,202,2.2,2.2,62,0.00,,,0.00,WUHU21623XXSP,2013-10-20 16:46:00,
2013-10-20 11:51:00,56.1,42.8,29.01,SW,225,0.0,3.4,61,0.00,,,0.00,WUHU21623XXSP,2013-10-20 16:51:00,
2013-10-20 11:56:00,56.5,43.2,29.01,SSW,202,0.0,4.5,61,0.00,,,0.00,WUHU21623XXSP,2013-10-20 16:56:00,
2013-10-20 12:01:00,56.8,43.6,29.01,SW,225,1.1,4.5,61,0.00,,,0.00,WUHU21623XXSP,2013-10-20 17:01:00,
2013-10-20 12:06:00,57.0,43.3,29.01,South,180,0.4,1.1,60,0.00,,,0.00,WUHU21623XXSP,2013-10-20 17:06:00,
2013-10-20 12:11:00,56.8,43.2,29.00,SE,135,1.8,5.1,60,0.00,,,0.00,WUHU21623XXSP,2013-10-20 17:11:00,
2013-10-20 12:16:00,56.8,43.2,28.99,SSW,202,2.9,5.1,60,0.00,,,0.00,WUHU21623XXSP,2013-10-20 17:16:00,
2013-10-20 12:21:00,56.8,43.2,28.99,SE,135,0.0,2.9,60,0.00,,,0.00,WUHU21623XXSP,2013-10-20 17:21:00,
2013-10-20 12:26:00,57.4,43.2,28.99,South,180,0.0,0.0,59,0.00,,,0.00,WUHU21623XXSP,2013-10-20 17:26:00,
2013-10-20 12:31:00,57.7,43.5,28.99,SW,225,0.0,0.0,59,0.00,,,0.00,WUHU21623XXSP,2013-10-20 17:31:00,
2013-10-20 12:36:00,57.9,43.7,29.00,SE,135,0.0,0.0,59,0.00,,,0.00,WUHU21623XXSP,2013-10-20 17:36:00,
2013-10-20 12:41:00,58.1,43.4,28.99,SSW,202,2.5,2.5,58,0.00,,,0.00,WUHU21623XXSP,2013-10-20 17:41:00,
2013-10-20 12:46:00,58.3,43.6,28.99,SSW,202,0.0,2.5,58,0.00,,,0.00,WUHU21623XXSP,2013-10-20 17:46:00,
2013-10-20 12:51:00,58.6,43.9,28.98,South,180,0.9,2.5,58,0.00,,,0.00,WUHU21623XXSP,2013-10-20 17:51:00,
2013-10-20 12:56:00,58.8,44.0,28.98,SE,135,2.5,3.8,58,0.00,,,0.00,WUHU21623XXSP,2013-10-20 17:56:00,
2013-10-20 13:01:00,58.8,44.0,28.98,WSW,247,4.5,4.5,58,0.00,,,0.00,WUHU21623XXSP,2013-10-20 18:01:00,
2013-10-20 13:06:00,59.2,43.9,28.98,SSW,202,6.5,6.5,57,0.00,,,0.00,WUHU21623XXSP,2013-10-20 18:06:00,
2013-10-20 13:11:00,59.7,44.4,28.97,WSW,247,5.6,11.4,57,0.00,,,0.00,WUHU21623XXSP,2013-10-20 18:11:00,
2013-10-20 13:16:00,60.1,44.3,28.96,SW,225,2.0,11.4,56,0.00,,,0.00,WUHU21623XXSP,2013-10-20 18:16:00,
2013-10-20 13:21:00,61.0,44.7,28.97,South,180,0.0,2.0,55,0.00,,,0.00,WUHU21623XXSP,2013-10-20 18:21:00,
2013-10-20 13:26:00,61.3,44.5,28.97,SW,225,4.3,4.3,54,0.00,,,0.00,WUHU21623XXSP,2013-10-20 18:26:00,
2013-10-20 13:31:00,61.7,44.8,28.95,SSE,157,4.3,4.3,54,0.00,,,0.00,WUHU21623XXSP,2013-10-20 18:31:00,
2013-10-20 13:36:00,62.2,44.8,28.95,SW,225,6.9,6.9,53,0.00,,,0.00,WUHU21623XXSP,2013-10-20 18:36:00,
2013-10-20 13:41:00,62.4,44.5,28.95,SW,225,6.9,6.9,52,0.00,,,0.00,WUHU21623XXSP,2013-10-20 18:41:00,
2013-10-20 13:46:00,62.4,44.5,28.96,SSW,202,4.7,6.9,52,0.00,,,0.00,WUHU21623XXSP,2013-10-20 18:46:00,
2013-10-20 13:51:00,62.4,44.0,28.95,SSW,202,0.0,4.7,51,0.00,,,0.00,WUHU21623XXSP,2013-10-20 18:51:00,
2013-10-20 13:56:00,62.4,44.0,28.95,WSW,247,4.3,5.8,51,0.00,,,0.00,WUHU21623XXSP,2013-10-20 18:56:00,
2013-10-20 14:01:00,62.4,44.0,28.94,SSW,202,4.0,5.8,51,0.00,,,0.00,WUHU21623XXSP,2013-10-20 19:01:00,
2013-10-20 14:06:00,62.4,44.5,28.95,West,270,4.9,4.9,52,0.00,,,0.00,WUHU21623XXSP,2013-10-20 19:06:00,
2013-10-20 14:11:00,62.6,44.2,28.96,SW,225,2.2,4.9,51,0.00,,,0.00,WUHU21623XXSP,2013-10-20 19:11:00,
2013-10-20 14:16:00,62.8,44.7,28.95,SW,225,6.7,6.7,51,0.00,,,0.00,WUHU21623XXSP,2013-10-20 19:16:00,
2013-10-20 14:21:00,63.3,44.3,28.96,West,270,2.5,6.7,50,0.00,,,0.00,WUHU21623XXSP,2013-10-20 19:21:00,
2013-10-20 14:26:00,63.5,44.5,28.96,WSW,247,6.3,6.7,50,0.00,,,0.00,WUHU21623XXSP,2013-10-20 19:26:00,
2013-10-20 14:31:00,63.9,44.8,28.95,WSW,247,2.2,6.7,50,0.00,,,0.00,WUHU21623XXSP,2013-10-20 19:31:00,
2013-10-20 14:36:00,64.2,45.2,28.96,WSW,247,4.7,4.7,50,0.00,,,0.00,WUHU21623XXSP,2013-10-20 19:36:00,
2013-10-20 14:41:00,64.4,45.3,28.95,SW,225,6.9,6.9,50,0.00,,,0.00,WUHU21623XXSP,2013-10-20 19:41:00,
2013-10-20 14:46:00,64.6,45.5,28.95,SSW,202,1.3,6.9,50,0.00,,,0.00,WUHU21623XXSP,2013-10-20 19:46:00,
2013-10-20 14:51:00,64.6,45.5,28.95,SW,225,8.1,8.1,50,0.00,,,0.00,WUHU21623XXSP,2013-10-20 19:51:00,
2013-10-20 14:56:00,64.6,44.9,28.95,WSW,247,2.2,8.1,49,0.00,,,0.00,WUHU21623XXSP,2013-10-20 19:56:00,
2013-10-20 15:01:00,64.2,44.6,28.95,West,270,4.5,4.5,49,0.00,,,0.00,WUHU21623XXSP,2013-10-20 20:01:00,
2013-10-20 15:06:00,64.4,44.7,28.96,SW,225,2.7,6.7,49,0.00,,,0.00,WUHU21623XXSP,2013-10-20 20:06:00,
2013-10-20 15:11:00,64.4,44.7,28.97,SW,225,8.3,8.3,49,0.00,,,0.00,WUHU21623XXSP,2013-10-20 20:11:00,
2013-10-20 15:16:00,64.8,44.9,28.96,SW,225,4.9,8.3,49,0.00,,,0.00,WUHU21623XXSP,2013-10-20 20:16:00,
2013-10-20 15:21:00,64.9,45.3,28.97,WSW,247,4.9,4.9,49,0.00,,,0.00,WUHU21623XXSP,2013-10-20 20:21:00,
2013-10-20 15:26:00,64.9,44.7,28.97,WSW,247,4.0,6.0,48,0.00,,,0.00,WUHU21623XXSP,2013-10-20 20:26:00,
2013-10-20 15:31:00,64.9,44.7,28.97,WSW,247,2.5,6.0,48,0.00,,,0.00,WUHU21623XXSP,2013-10-20 20:31:00,
2013-10-20 15:36:00,64.9,44.7,28.97,West,270,1.8,2.5,48,0.00,,,0.00,WUHU21623XXSP,2013-10-20 20:36:00,
2013-10-20 15:41:00,64.8,44.5,28.97,WSW,247,6.7,6.7,48,0.00,,,0.00,WUHU21623XXSP,2013-10-20 20:41:00,
2013-10-20 15:46:00,64.6,44.3,28.98,WSW,247,6.0,6.7,48,0.00,,,0.00,WUHU21623XXSP,2013-10-20 20:46:00,
2013-10-20 15:51:00,64.2,44.0,28.98,West,270,5.1,6.0,48,0.00,,,0.00,WUHU21623XXSP,2013-10-20 20:51:00,
2013-10-20 15:56:00,64.2,44.0,28.98,WSW,247,4.9,5.1,48,0.00,,,0.00,WUHU21623XXSP,2013-10-20 20:56:00,
2013-10-20 16:01:00,64.2,44.0,28.97,WSW,247,4.9,4.9,47,0.00,,,0.00,WUHU21623XXSP,2013-10-20 21:01:00,
2013-10-20 16:06:00,64.2,43.4,28.96,WSW,247,2.9,7.6,47,0.00,,,0.00,WUHU21623XXSP,2013-10-20 21:06:00,
2013-10-20 16:11:00,64.2,43.4,28.96,WSW,247,2.9,7.6,47,0.00,,,0.00,WUHU21623XXSP,2013-10-20 21:11:00,
2013-10-20 16:16:00,64.2,43.4,28.95,West,270,2.9,2.9,47,0.00,,,0.00,WUHU21623XXSP,2013-10-20 21:16:00,
2013-10-20 16:21:00,64.2,43.4,28.96,WNW,292,1.6,2.9,47,0.00,,,0.00,WUHU21623XXSP,2013-10-20 21:21:00,
2013-10-20 16:26:00,64.2,43.4,28.95,WSW,247,0.7,1.6,47,0.00,,,0.00,WUHU21623XXSP,2013-10-20 21:26:00,
2013-10-20 16:31:00,64.2,43.4,28.96,West,270,0.0,2.2,47,0.00,,,0.00,WUHU21623XXSP,2013-10-20 21:31:00,
2013-10-20 16:36:00,64.0,43.3,28.97,WNW,292,4.5,4.7,47,0.00,,,0.00,WUHU21623XXSP,2013-10-20 21:36:00,
2013-10-20 16:41:00,64.2,43.3,28.97,West,270,0.0,4.7,47,0.00,,,0.00,WUHU21623XXSP,2013-10-20 21:41:00,
2013-10-20 16:46:00,64.0,43.3,28.97,West,270,2.5,2.5,47,0.00,,,0.00,WUHU21623XXSP,2013-10-20 21:46:00,
2013-10-20 16:51:00,64.0,43.3,28.97,West,270,0.7,4.5,47,0.00,,,0.00,WUHU21623XXSP,2013-10-20 21:51:00,
2013-10-20 16:56:00,64.0,43.3,28.97,WNW,292,0.9,4.5,47,0.00,,,0.00,WUHU21623XXSP,2013-10-20 21:56:00,
2013-10-20 17:01:00,64.2,43.4,28.97,West,270,0.7,4.5,47,0.00,,,0.00,WUHU21623XXSP,2013-10-20 22:01:00,
2013-10-20 17:06:00,64.2,43.4,28.97,West,270,2.9,4.5,47,0.00,,,0.00,WUHU21623XXSP,2013-10-20 22:06:00,
2013-10-20 17:11:00,64.2,43.4,28.97,West,270,0.0,4.5,47,0.00,,,0.00,WUHU21623XXSP,2013-10-20 22:11:00,
2013-10-20 17:16:00,64.0,43.3,28.97,West,270,0.0,0.0,47,0.00,,,0.00,WUHU21623XXSP,2013-10-20 22:16:00,
2013-10-20 17:21:00,63.7,43.5,28.97,West,270,2.2,2.2,48,0.00,,,0.00,WUHU21623XXSP,2013-10-20 22:21:00,
2013-10-20 17:26:00,63.5,43.4,28.97,West,270,0.0,2.2,48,0.00,,,0.00,WUHU21623XXSP,2013-10-20 22:26:00,
2013-10-20 17:31:00,63.1,43.0,28.97,WSW,247,2.7,2.7,48,0.00,,,0.00,WUHU21623XXSP,2013-10-20 22:31:00,
2013-10-20 17:36:00,63.0,42.9,28.98,West,270,0.0,2.7,48,0.00,,,0.00,WUHU21623XXSP,2013-10-20 22:36:00,
2013-10-20 17:41:00,62.8,42.9,28.98,West,270,0.0,2.7,48,0.00,,,0.00,WUHU21623XXSP,2013-10-20 22:41:00,
2013-10-20 17:46:00,62.6,43.1,28.98,West,270,0.7,0.7,49,0.00,,,0.00,WUHU21623XXSP,2013-10-20 22:46:00,
2013-10-20 17:51:00,62.2,42.2,28.99,West,270,0.0,0.7,48,0.00,,,0.00,WUHU21623XXSP,2013-10-20 22:51:00,
2013-10-20 17:56:00,61.9,42.5,28.99,West,270,0.0,0.0,49,0.00,,,0.00,WUHU21623XXSP,2013-10-20 22:56:00,
2013-10-20 18:01:00,61.5,42.2,28.99,West,270,0.0,0.0,49,0.00,,,0.00,WUHU21623XXSP,2013-10-20 23:01:00,
2013-10-20 18:06:00,61.3,42.0,28.99,West,270,0.0,0.0,49,0.00,,,0.00,WUHU21623XXSP,2013-10-20 23:06:00,
2013-10-20 18:11:00,61.0,42.2,28.99,West,270,0.0,0.0,50,0.00,,,0.00,WUHU21623XXSP,2013-10-20 23:11:00,
2013-10-20 18:16:00,60.6,41.9,28.99,West,270,0.0,0.0,50,0.00,,,0.00,WUHU21623XXSP,2013-10-20 23:16:00,
2013-10-20 18:21:00,60.3,41.6,28.99,West,270,0.0,0.0,50,0.00,,,0.00,WUHU21623XXSP,2013-10-20 23:21:00,
2013-10-20 18:26:00,60.1,41.9,28.99,West,270,0.0,0.0,51,0.00,,,0.00,WUHU21623XXSP,2013-10-20 23:26:00,
2013-10-20 18:31:00,59.7,41.6,29.00,West,270,0.0,0.0,51,0.00,,,0.00,WUHU21623XXSP,2013-10-20 23:31:00,
2013-10-20 18:36:00,59.5,41.9,29.00,West,270,0.0,0.0,52,0.00,,,0.00,WUHU21623XXSP,2013-10-20 23:36:00,
2013-10-20 18:41:00,59.4,41.7,29.01,West,270,0.0,0.0,52,0.00,,,0.00,WUHU21623XXSP,2013-10-20 23:41:00,
2013-10-20 18:46:00,59.2,41.6,29.00,West,270,0.0,0.0,52,0.00,,,0.00,WUHU21623XXSP,2013-10-20 23:46:00,
2013-10-20 18:51:00,58.8,41.2,29.01,West,270,0.0,0.0,52,0.00,,,0.00,WUHU21623XXSP,2013-10-20 23:51:00,
2013-10-20 18:56:00,58.8,41.2,29.01,West,270,0.0,0.0,52,0.00,,,0.00,WUHU21623XXSP,2013-10-20 23:56:00,
2013-10-20 19:01:00,58.8,41.7,29.01,West,270,0.0,0.0,53,0.00,,,0.00,WUHU21623XXSP,2013-10-21 00:01:00,
2013-10-20 19:06:00,58.8,41.7,29.01,West,270,0.0,0.0,53,0.00,,,0.00,WUHU21623XXSP,2013-10-21 00:06:00,
2013-10-20 19:11:00,58.8,41.7,29.01,West,270,0.0,0.0,53,0.00,,,0.00,WUHU21623XXSP,2013-10-21 00:11:00,
2013-10-20 19:16:00,58.8,41.7,29.01,West,270,0.0,0.0,53,0.00,,,0.00,WUHU21623XXSP,2013-10-21 00:16:00,
2013-10-20 19:21:00,58.5,41.4,29.01,West,270,0.0,0.0,53,0.00,,,0.00,WUHU21623XXSP,2013-10-21 00:21:00,
2013-10-20 19:26:00,58.3,41.7,29.01,West,270,0.0,0.0,54,0.00,,,0.00,WUHU21623XXSP,2013-10-21 00:26:00,
2013-10-20 19:31:00,58.1,41.5,29.01,West,270,0.0,0.0,54,0.00,,,0.00,WUHU21623XXSP,2013-10-21 00:31:00,
2013-10-20 19:36:00,57.9,41.4,29.01,West,270,0.0,0.0,54,0.00,,,0.00,WUHU21623XXSP,2013-10-21 00:36:00,
2013-10-20 19:41:00,57.9,41.8,29.01,West,270,0.0,0.0,55,0.00,,,0.00,WUHU21623XXSP,2013-10-21 00:41:00,
2013-10-20 19:46:00,57.7,41.7,29.01,West,270,0.0,0.0,55,0.00,,,0.00,WUHU21623XXSP,2013-10-21 00:46:00,
2013-10-20 19:51:00,57.6,42.0,29.01,West,270,0.0,0.0,56,0.00,,,0.00,WUHU21623XXSP,2013-10-21 00:51:00,
2013-10-20 19:56:00,57.4,41.3,29.01,West,270,0.0,0.0,55,0.00,,,0.00,WUHU21623XXSP,2013-10-21 00:56:00,
2013-10-20 20:01:00,57.4,41.8,29.02,West,270,0.0,0.0,56,0.00,,,0.00,WUHU21623XXSP,2013-10-21 01:01:00,
2013-10-20 20:06:00,57.0,41.5,29.02,West,270,0.0,0.0,56,0.00,,,0.00,WUHU21623XXSP,2013-10-21 01:06:00,
2013-10-20 20:11:00,57.0,41.5,29.02,West,270,0.0,0.0,56,0.00,,,0.00,WUHU21623XXSP,2013-10-21 01:11:00,
2013-10-20 20:16:00,57.0,41.5,29.02,West,270,0.0,0.0,56,0.00,,,0.00,WUHU21623XXSP,2013-10-21 01:16:00,
2013-10-20 20:21:00,57.0,41.5,29.02,West,270,0.0,0.0,56,0.00,,,0.00,WUHU21623XXSP,2013-10-21 01:21:00,
2013-10-20 20:26:00,57.2,42.1,29.02,West,270,0.0,0.0,57,0.00,,,0.00,WUHU21623XXSP,2013-10-21 01:26:00,
2013-10-20 20:31:00,57.4,42.3,29.02,West,270,0.0,0.0,57,0.00,,,0.00,WUHU21623XXSP,2013-10-21 01:31:00,
2013-10-20 20:36:00,57.4,42.3,29.02,West,270,0.0,0.0,57,0.00,,,0.00,WUHU21623XXSP,2013-10-21 01:36:00,
2013-10-20 20:41:00,57.4,42.3,29.02,West,270,0.0,0.0,57,0.00,,,0.00,WUHU21623XXSP,2013-10-21 01:41:00,
2013-10-20 20:46:00,57.4,42.3,29.02,West,270,0.0,0.0,57,0.00,,,0.00,WUHU21623XXSP,2013-10-21 01:46:00,
2013-10-20 20:51:00,57.4,42.3,29.02,West,270,0.0,0.0,57,0.00,,,0.00,WUHU21623XXSP,2013-10-21 01:51:00,
2013-10-20 20:56:00,57.4,42.3,29.02,West,270,0.0,0.0,57,0.00,,,0.00,WUHU21623XXSP,2013-10-21 01:56:00,
2013-10-20 21:01:00,57.2,42.6,29.02,West,270,0.0,0.0,58,0.00,,,0.00,WUHU21623XXSP,2013-10-21 02:01:00,
2013-10-20 21:06:00,57.0,42.4,29.02,West,270,0.0,0.0,58,0.00,,,0.00,WUHU21623XXSP,2013-10-21 02:06:00,
2013-10-20 21:11:00,57.0,42.4,29.02,West,270,0.0,0.0,58,0.00,,,0.00,WUHU21623XXSP,2013-10-21 02:11:00,
2013-10-20 21:16:00,57.0,42.4,29.03,West,270,0.0,0.0,58,0.00,,,0.00,WUHU21623XXSP,2013-10-21 02:16:00,
2013-10-20 21:21:00,57.0,42.4,29.03,West,270,0.0,0.0,58,0.00,,,0.00,WUHU21623XXSP,2013-10-21 02:21:00,
2013-10-20 21:26:00,57.0,42.4,29.03,West,270,0.0,0.0,58,0.00,,,0.00,WUHU21623XXSP,2013-10-21 02:26:00,
2013-10-20 21:31:00,57.0,42.4,29.03,West,270,0.0,0.0,58,0.00,,,0.00,WUHU21623XXSP,2013-10-21 02:31:00,
2013-10-20 21:36:00,57.0,42.4,29.03,WSW,247,0.0,0.7,58,0.00,,,0.00,WUHU21623XXSP,2013-10-21 02:36:00,
2013-10-20 21:41:00,56.8,42.7,29.03,West,270,0.4,0.7,59,0.00,,,0.00,WUHU21623XXSP,2013-10-21 02:41:00,
2013-10-20 21:46:00,56.8,42.7,29.04,West,270,1.8,1.8,59,0.00,,,0.00,WUHU21623XXSP,2013-10-21 02:46:00,
2013-10-20 21:51:00,57.0,42.9,29.04,West,270,1.1,2.9,59,0.00,,,0.00,WUHU21623XXSP,2013-10-21 02:51:00,
2013-10-20 21:56:00,57.0,42.9,29.04,West,270,0.9,2.9,59,0.00,,,0.00,WUHU21623XXSP,2013-10-21 02:56:00,
2013-10-20 22:01:00,57.0,42.9,29.04,WSW,247,0.0,1.6,59,0.00,,,0.00,WUHU21623XXSP,2013-10-21 03:01:00,
2013-10-20 22:06:00,57.4,43.2,29.04,West,270,1.1,1.6,59,0.00,,,0.00,WUHU21623XXSP,2013-10-21 03:06:00,
2013-10-20 22:11:00,57.4,43.2,29.04,WSW,247,0.0,2.9,59,0.00,,,0.00,WUHU21623XXSP,2013-10-21 03:11:00,
2013-10-20 22:16:00,57.4,43.2,29.04,West,270,1.6,2.9,59,0.00,,,0.00,WUHU21623XXSP,2013-10-21 03:16:00,
2013-10-20 22:21:00,57.6,42.9,29.04,West,270,0.0,6.0,58,0.00,,,0.00,WUHU21623XXSP,2013-10-21 03:21:00,
2013-10-20 22:26:00,57.7,43.1,29.04,West,270,1.6,6.0,58,0.00,,,0.00,WUHU21623XXSP,2013-10-21 03:26:00,
2013-10-20 22:31:00,57.9,43.1,29.05,WNW,292,1.6,2.0,58,0.00,,,0.00,WUHU21623XXSP,2013-10-21 03:31:00,
2013-10-20 22:36:00,58.1,42.9,29.05,NW,315,1.8,3.4,57,0.00,,,0.00,WUHU21623XXSP,2013-10-21 03:36:00,
2013-10-20 22:57:00,58.1,43.0,29.05,West,270,0.0,0.0,57,0.00,,,0.00,WUHU21623XXSP,2013-10-21 03:57:00,
2013-10-20 23:57:00,55.6,41.1,29.07,NE,45,0.7,0.7,58,0.00,,,0.00,WUHU21623XXSP,2013-10-21 04:57:00,